sat.trackr.live / text

‹ back to catalog

COSMOS 2476 (744)

NORAD 37867 · 2011-064A

PAYLOAD ACTIVE UNKNOWN

§ Identity

Operator
Country
CIS
Launch date
2011-11-04
Launch site
TYMSC
Launch vehicle
Mass (kg)
RCS (m²)
6.31

Purposes: nav

External: N2YO · Heavens-Above · Gunter

§ Orbital elements

Epoch: 2026-09-13T15:15:01.304064Z

Period
675.73 min
Inclination
65.3254°
Eccentricity
0.0022591
Mean motion
2.13103730 rev/d
Perigee alt
19,072.1 km
Apogee alt
19,187.4 km
Semi-major
25,507.9 km
B*
0.0000e+0
RAAN
69.8880°
Arg perigee
230.6505°
Mean anomaly
108.7889°
Rev number
11,564

§ Raw data

COSMOS 2476 (744)1 37867U 11064A   26256.63543176 -.00000009  00000+0  00000+0 0  99972 37867  65.3254  69.8880 0022591 230.6505 108.7889  2.13103730115645

JSON: /api/v1/satellites/37867 · /tle

For live sub-satellite position, see the globe view (requires WebGL).

§ Visibility from observer

Set your observer location to see the next 7 days of passes ≥ 10°. The values pass through the URL so the page stays shareable.

No JS? Fill the form by hand. The geolocation button needs JavaScript.